www.pogodaiklimat.ru

Погода и климат >> Архив погоды >> Индия >> Махараштра >> Харнай


ПОГОДА в Харнае

  • Прогноз погоды в Харнае
  • Монитор погоды в Харнае

АРХИВ ПОГОДЫ в Харнае

Время (UTC), дата Ветер
(напр.,м/с)
 
Видим.   Явления Облачность Т
(С)
Тd
(С)
f
(%)
Тe
(С)
Тes
(С)
Комфортность P
(гПа)
Po
(гПа)
Тmin
(С)
Tmax
(С)
R
(мм)
R24
(мм)
S
(см)
03 9.07 Ю 6 4000 м в посл. час морось 10/5 600 м
[Cu Sc Ac As]
+29.1 0.0 15 +26 +27 жарко 1006.3 1004.0 +27.3 10
06 9.07 ЮЗ 5 4000 м {морось} 10/5 600 м
[Cu Sc Ac As]
+29.9 0.0 14 +27 +29 жарко 1006.4 1004.1
09 9.07 ЮЗ 2 4000 м {туман} 10/5 600 м
[Cu Sc Ac As]
+30.2 -20.1 3 +26 +28 жарко 1004.3 1002.0
12 9.07 Ю 5 4000 м дождь 9/5 600 м
[Sc Ac As]
+29.1 -20.1 3 +25 +25 комфорт 1004.4 1002.1 +31.0 2
03 10.07 З 1 4000 м слаб. дождь {туман} 10/6 300 м
[Frnb As op]
+27.0 -20.1 3 +23 +23 комфорт 1006.5 1004.2 +25.2 31
06 10.07 ЮЗ 1 4000 м слаб. дождь 10/6 300 м
[Frnb As op]
+26.8 -20.1 4 +23 +25 комфорт 1006.8 1004.5
09 10.07 штиль 0 4000 м слаб. дождь 10/5 300 м
[Frnb As op]
+26.6 0.0 18 +25 +27 комфорт 1005.4 1003.1 41
12 10.07 ЮЗ 1 4000 м морось {дождь} 10/5 300 м
[Cu Sc Ac As]
+27.5 -20.1 3 +23 +24 комфорт 1005.3 1003.0 +28.4 63
03 11.07 З 1 4000 м в посл. час дождь {морось} 9/5 600 м
[Sc diur, vesp Ac As]
+28.6 -20.1 3 +24 +26 комфорт 1008.3 1006.0 +26.2 71
06 11.07 штиль 0 4000 м {морось} 9/5 600 м
[Sc diur, vesp Ac As]
+29.3 0.0 15 +27 +33 жарко 1009.1 1006.8
09 11.07 штиль 0 4000 м в посл. час дождь {туман} 10/5 600 м
[Cu Sc Ac As]
+27.2 0.0 17 +25 +29 комфорт 1008.5 1006.2 3
12 11.07 ЮЗ 2 4000 м {дождь} 10/5 600 м
[Cu Sc Ac As]
+29.0 -20.1 3 +24 +25 комфорт 1007.3 1005.0 +30.5 4
03 12.07 З 1 4000 м в посл. час дождь 10/5 600 м
[Sc diur, vesp Ac As]
+28.4 -20.1 3 +24 +25 комфорт 1009.4 1007.1 +23.8 85
06 12.07 Ю 2 4000 м в посл. час дождь {морось} 10/5 600 м
[Frnb As op]
+29.0 -20.1 3 +24 +27 комфорт 1009.9 1007.6 0.8
12 12.07 ЮЗ 2 4000 м {дождь} 10/5 600 м
[Sc diur, vesp Ac As]
+29.2 -20.1 3 +25 +25 комфорт 1008.3 1006.0 +30.9 0.8
03 13.07 ЮЗ 1 4000 м слаб. морось {дождь} 9/5 600 м
[Cu Sc Ac As]
+28.3 -20.1 3 +24 +25 комфорт 1010.3 1008.0 +26.7 5
06 13.07 З 1 4000 м {морось} 9/5 600 м
[Cu Sc Ac As]
+30.7 -20.1 3 +26 +31 жарко 1011.1 1008.8
09 13.07 ЮЗ 1 4000 м {морось} 9/5 600 м
[Sc diur, vesp Ac As]
+30.2 0.0 14 +27 +32 жарко 1010.1 1007.8
12 13.07 штиль 0 4000 м {морось} 8/5 600 м
[St Ac lent]
+30.0 0.0 14 +27 +28 жарко 1009.3 1007.0 +32.2
03 14.07 ЮЗ 1 4000 м мгла {туман} 9/5 600 м
[Cu Sc Ac As]
+29.0 -20.1 3 +24 +26 комфорт 1010.4 1008.1 +25.8 4
06 14.07 З 1 10 км 8/5 600 м
[Frnb Ac cast]
+30.2 -20.1 3 +26 +32 жарко 1010.8 1008.5
09 14.07 З 1 10 км 8/5 600 м
[Sc diur, vesp Ac und]
+30.8 0.0 14 +28 +34 жарко 1009.3 1007.0
12 14.07 СЗ 2 10 км 8/5 600 м
[Sc diur, vesp Ac und Ci sp]
+30.5 0.0 14 +28 +29 жарко 1008.0 1005.7 +32.1
03 15.07 ЮЗ 1 4000 м гроза с градом {морось} 10/8 600 м
[Sc Ac trans]
+27.2 -20.1 3 +23 +24 комфорт 1009.0 1006.7 +26.0 28
06 15.07 ЮЗ 1 4000 м мгла 10/8 600 м
[Frnb Ac inh]
+28.6 -20.1 3 +24 +26 комфорт 1009.9 1007.6
09 15.07 штиль 0 4000 м {туман} 10/5 600 м
[Cu Sc Ac As]
+29.0 0.0 15 +26 +30 жарко 1008.9 1006.6
12 15.07 штиль 0 4000 м слаб. морось {туман} 10/5 600 м
[Cu Sc Ac As]
+25.6 0.0 19 +24 +25 комфорт 1007.9 1005.6 +29.5 0.4

 

Местоположение метеостанции Харнай (Махараштра, Индия): широта 17.82 долгота 73.10 высота над уровнем моря 20 м.

В архиве по умолчанию представлена погода в Харнае за последнюю неделю. Архивные данные за месяц целиком и за предыдущие месяцы, начиная с января 2011 года, Вы можете получить, выбрав интересующий диапазон дат из раскрывающегося списка и нажав кнопку "Ввод!".


*Определитесь, кто Вы:
робот инопланетянин человек

Внимание! Время в таблицах - всемирное. Для получения местного времени необходимо прибавить поправку, которая равна 5.5 ч.

Смотрите также архив погоды в соседних городах и на ближайших метеорологических станциях:

Погода в Махабалешваре (Махараштра, Индия) (62 км)
Погода в Байре (Махараштра, Индия) (77 км)
Погода в Алибаге (Махараштра, Индия) (93 км)
Погода в Ратнагири (Махараштра, Индия) (97 км)
Погода в Сатаре (Махараштра, Индия) (106 км)
Погода в Пуне (Махараштра, Индия) (112 км)
Погода в Мумбай Колаба (Махараштра, Индия) (124 км)
Погода в Матеране (Махараштра, Индия) (130 км)
Погода в Мумбаи (Махараштра, Индия) (147 км)
Погода в Колхапуре (Махараштра, Индия) (173 км)

Пояснения к столбцам:

Ветер - указаны скорость ветра в м/с - средняя за 10 мин, порывы в срок и между сроками (в фигурных скобках) и направление, откуда дует ветер: С - северный, СВ - северо-восточный, В - восточный, ЮВ - юго-восточный, Ю - южный, ЮЗ - юго-западный, З - западный, СЗ - северо-западный.
Видимость - горизонтальная дальность видимости в метрах или километрах. При видимости от 1 до 10 км при отсутствии осадков обычно наблюдается дымка, при ухудшении видимости до 1 км и менее - туман. В сухую погоду видимость может ухудшаться дымом, пылью или мглою.
Явления - указаны атмосферные явления, наблюдавшиеся в срок или в последний час перед сроком; фигурными скобками обозначены явления, наблюдавшиеся между сроками (за 1-3 часа до срока); квадратными скобками обозначены град или гололедные отложения с указанием их диаметра в мм.
Облачность - указаны через наклонную черту общая и нижняя облачность в баллах и высота нижней границы облаков в метрах; квадратными скобками обозначены формы облаков: Ci - перистые, Cs - перисто-слоистые, Cc - перисто-кучевые, Ac - высококучевые, As - высокослоистые, Sc - слоисто-кучевые, Ns - слоисто-дождевые, Cu - кучевые, Cb - кучево-дождевые. Подробнее классификацию облаков см. в Атласе облаков (PDF).
T - Температура воздуха - температура, измеренная на высоте 2 м над землей.
Td - Температура точки росы - температура, при понижении до которой содержащийся в воздухе водяной пар достигнет насыщения.
f - Относительная влажность воздуха - влажноcть воздуха, измеренная на высоте 2 м над землей.
Te - Эффективная температура - температура, которую ощущает одетый по сезону человек в тени. Характеристика душности погоды. При расчете учитывается влияние влажности воздуха и скорости ветра на теплоощущения человека.
Tes - Эффективная температура на солнце - температура, которую ощущает человек, с поправкой на солнечный нагрев. Характеристика знойности погоды. Зависит от высоты солнца над горизонтом, облачности и скорости ветра. Ночью, в пасмурную погоду, а также при ветре 12 м/с и более поправка равна нулю.
P - Атмосферное давление - приведенное к уровню моря атмосферное давление.
Po - Атмосферное давление - измеренное на уровне метеостанции атмосферное давление.
Tmin - Минимальная температура - минимум температуры воздуха на высоте 2 м над землей.
Tmax - Максимальная температура - максимум температуры воздуха на высоте 2 м над землей.
R - Количество осадков - Количество выпавших осадков за период времени, мм. При наведении курсора мыши на число - период времени, за который выпало указанное количество осадков.
R24 - Количество осадков - Количество выпавших осадков за 24 часа, мм.
S - Снежный покров - Высота снежного покрова, см. При наведении курсора мыши на число - состояние снежного покрова и степень покрытия местности в баллах.